Flag for Moldova Weather past 2 weeks in Chisinau, Moldova

Now
79 °F

Sprinkles. Partly sunny.


Feels Like: 79 °F
Forecast: 60 / 77 °F
Wind: 13 mph from South

Location: Chisinau International Airport

Current Time: Jul 1, 2015 at 7:55:18 PM

Latest Report: Jul 1, 2015 at 7:30 PM


Visibility: N/A

Pressure: 30.09 "Hg

Humidity: 39%

Dew point: 52 °F

Location of ChisinauLocation

Historic Weather in Chisinau — Graph

°F

Chisinau temperature yesterday

Maximum temperature yesterday: 81 °F (at 2:30 PM)
Minimum temperature yesterday: 61 °F (at 12:00 AM)
Average temperature yesterday: 71 °F

Past Weeks' High & Low Weather Summary

 TemperatureHumidityPressure
High84 °F (Jun 24, 3:00 PM)88% (Jun 18, 3:30 AM)30.12 "Hg (Jun 18, 3:30 AM)
Low48 °F (Jun 19, 6:00 AM)23% (Jun 29, 6:00 PM)29.71 "Hg (Jun 19, 5:00 PM)
Average69 °F52%29.88 "Hg
* Reported Jun 16 7:00 PM — Jul 1 7:00 PM, Chisinau, Weather by CustomWeather, © 2015

Note: Actual official high and low records may vary slightly from our data, if they occured in-between our weather recording intervals... More about our weather records

Advertising

Chisinau weather history for previous 24 hours

 ConditionsComfort  
Time TempWeatherWind HumidityBarometerVisibility
7:00 PM
Wed, Jul 1
81 °FScattered clouds.5 mph30%30.07 "HgN/A
6:30 PM81 °FScattered clouds.5 mph32%30.07 "HgN/A
6:00 PM81 °FScattered clouds.3 mph32%30.07 "HgN/A
5:30 PM82 °FScattered clouds.6 mph28%30.09 "HgN/A
5:00 PM82 °FSunny.3 mph28%30.09 "Hg10 mi
4:30 PM82 °FSunny.2 mph28%30.09 "Hg10 mi
4:00 PM81 °FPassing clouds.6 mph26%30.09 "HgN/A
3:30 PM81 °FPassing clouds.5 mph28%30.09 "HgN/A
3:00 PM82 °FPassing clouds.6 mph28%30.09 "HgN/A
2:30 PM81 °FPassing clouds.6 mph30%30.09 "HgN/A
2:00 PM82 °FPassing clouds.7 mph28%30.12 "HgN/A
1:30 PM81 °FScattered clouds.3 mph28%30.12 "HgN/A
1:00 PM81 °FScattered clouds.5 mph28%30.12 "HgN/A
12:30 PM81 °FScattered clouds.5 mph28%30.12 "HgN/A
12:00 PM82 °FScattered clouds.6 mph26%30.12 "HgN/A
11:30 AM81 °FScattered clouds.3 mph24%30.12 "HgN/A
11:00 AM79 °FPassing clouds.3 mph32%30.12 "HgN/A
10:30 AM77 °FPassing clouds.3 mph36%30.12 "HgN/A
10:00 AM75 °FPassing clouds.2 mph44%30.12 "HgN/A
9:30 AM73 °FSunny.2 mph47%30.12 "Hg10 mi
9:00 AM72 °FSunny.2 mph53%30.12 "Hg10 mi
8:30 AM70 °FPassing clouds.3 mph53%30.12 "HgN/A
8:00 AM68 °FSunny.2 mph56%30.12 "Hg10 mi
7:30 AM66 °FSunny.2 mph60%30.09 "Hg10 mi
7:00 AM63 °FSunny.2 mph73%30.09 "Hg10 mi
6:30 AM61 °FSunny.No wind72%30.09 "Hg10 mi
6:00 AM61 °FClear.No wind72%30.09 "Hg10 mi
5:30 AM63 °FPassing clouds.3 mph64%30.09 "HgN/A
5:00 AM61 °FClear.5 mph72%30.09 "Hg10 mi
4:30 AM61 °FClear.2 mph72%30.09 "Hg10 mi
4:00 AM63 °FClear.No wind64%30.09 "Hg10 mi
3:30 AM66 °FClear.No wind56%30.07 "Hg10 mi
3:00 AM64 °FClear.No wind60%30.07 "Hg10 mi
2:30 AM68 °FClear.1 mph49%30.07 "Hg10 mi
2:00 AM68 °FClear.2 mph49%30.07 "Hg10 mi
1:30 AM68 °FClear.No wind49%30.07 "Hg10 mi
1:00 AM64 °FPassing clouds.3 mph60%30.07 "HgN/A
12:30 AM64 °FClear.2 mph60%30.07 "Hg10 mi
12:00 AM66 °FClear.2 mph49%30.07 "Hg10 mi
11:30 PM
Tue, Jun 30
68 °FClear.No wind49%30.07 "Hg10 mi
11:00 PM70 °FClear.No wind43%30.07 "Hg10 mi
10:30 PM70 °FClear.1 mph43%30.07 "Hg10 mi
10:00 PM72 °FSunny.No wind41%30.04 "Hg10 mi
9:30 PM73 °FSunny.2 mph36%30.04 "Hg10 mi
9:00 PM73 °FSunny.8 mph33%30.04 "Hg10 mi
8:00 PM79 °FSunny.5 mph28%30.01 "Hg10 mi
7:30 PM79 °FSunny.8 mph26%30.01 "Hg10 mi
7:00 PM81 °FSunny.6 mph24%30.01 "Hg10 mi
Weather by CustomWeather, © 2015

See weather overviewHow to use our weather pages